Regional Weather Roundup
Issued by NWS Portland, ME

Current Version | Previous Version | Text Only | Print | Product List | Glossary Off
Versions: 1 2 3 4 5 6 7 8 9 10 11 12 13 14 15 16 17 18 19 20 21 22 23 24 25 26 27 28 29 30 31 32 33 34 35 36 37 38 39 40 41 42 43 44 45 46 47 48 49 50
000 ASUS41 KGYX 120510 RWRGYX WEATHER ROUNDUP FOR MAINE AND NEW HAMPSHIRE NATIONAL WEATHER SERVICE GRAY ME 1200 AM EST TUE DEC 12 2017 MEZ002-005-006-010-012-015-018-020-021-024-026-027-029-120600- MAINE CITY SKY/WX TMP DP RH WIND PRES REMARKS PORTLAND CLOUDY 28 18 66 NE10 30.02F WCI 19 SANFORD CLOUDY 26 19 74 N6 30.01F BAR HARBOR CLEAR 18 14 84 N5 30.07S WISCASSET CLOUDY 23 16 74 VRB3 30.05F ROCKLAND PTCLDY 24 18 77 NE8 30.05S FRYEBURG CLOUDY 19 17 92 CALM 30.00S LEWISTONAUBURN CLOUDY 21 10 62 NE7 30.03S AUGUSTA MOCLDY 18 9 68 E7 30.05S WATERVILLE PTCLDY 16 8 71 NE3 30.01R BANGOR PTCLDY 14 7 73 NE5 30.07S GREENVILLE N/A 5 -2 72 NE3 29.93S MILLINOCKET CLOUDY 7 5 91 CALM 30.06F HOULTON CLOUDY -1 -4 87 N3 30.05R PRESQUE ISLE PTCLDY -11 -15 82 CALM 30.07R FRENCHVILLE CLOUDY -4 -6 91 N7 29.99F CARIBOU CLOUDY -4 -10 75 CALM 30.04R $$ NHZ002-005-008-009-011-012-014-120600- NEW HAMPSHIRE CITY SKY/WX TMP DP RH WIND PRES REMARKS PORTSMOUTH CLOUDY 30 19 62 CALM 29.99S ROCHESTER CLOUDY 27 20 75 N3 29.99F NASHUA CLOUDY 27 24 89 CALM 29.99F MANCHESTER CLOUDY 30 22 72 CALM 29.98S CONCORD CLOUDY 26 20 77 CALM 29.98F LACONIA CLOUDY 25 19 78 CALM 29.98F PLYMOUTH CLOUDY 22 18 85 CALM 29.99S BERLIN CLOUDY 11 8 88 N3 29.95S WHITEFIELD CLOUDY 12 9 87 CALM 29.95R JAFFREY CLOUDY 27 21 78 CALM 29.93F KEENE CLOUDY 26 22 84 CALM 29.96F LEBANON CLOUDY 25 17 72 CALM 29.95F MT WASHINGTON MOCLDY 3 -9 55 SW32 N/A WCI -22 $$ VTZ005-007-008-120600- VERMONT CITY SKY/WX TMP DP RH WIND PRES REMARKS ST JOHNSBURY N/A 14 10 84 MISG 29.96S MONTPELIER CLOUDY 15 12 88 CALM 29.95F BURLINGTON CLOUDY 19 12 74 CALM 29.94F $$ MAZ007-012-024-CTZ003-RIZ002-NYZ038-NYZ072-120600- SOUTHERN NEW ENGLAND AND NY CITY SKY/WX TMP DP RH WIND PRES REMARKS BOSTON CLOUDY 34 25 69 N3 30.00F WORCESTER CLOUDY 29 16 58 SE6 29.93F NANTUCKET CLOUDY 36 29 75 E6 30.00F PROVIDENCE CLOUDY 34 26 72 CALM 30.00S HARTFORD CLOUDY 30 22 72 CALM 29.96F ALBANY FLURRIES 29 19 66 CALM 29.92F NEW YORK CITY CLOUDY 40 23 50 S7 29.94F $$ ANZ081-ANZ082-ANZ150-NHZ014-MEZ023>029-120600- COASTAL MARINE OBSERVATIONS STATION/POSITION TIME TEMP WIND PRES WAVE AIR SEA DIR/SP/G HT/PER (UTC) (F) (DEG/KT/KT) (MB) (FT/S) MOUNT DESERT ROC 0500 30 10/ 14/ 16 1017.2F MATINICUS ROCK 0400 31 20/ 10/ 12 1016.7R ISLE OF SHOALS 0400 35 40/ 8/ 10 1015.8F JEFFREYS LEDGE 0406 47 N/A 3/11 GEORGES BANK BUO 0350 45 51 1016.0 6/10 $$ .............KEY.............. WCI - WIND CHILL TC - TEMPERATURE IN CELSIUS VSB - VISIBILITY IN MILES HX - HEAT INDEX FAIR- INDICATES FEW OR NO CLOUDS BELOW 12,000 FT, WITH NO SIGNIFICANT WEATHER AND/OR OBSTRUCTIONS TO VISIBILITY.

USA.gov is the U.S. government's official web portal to all federal, state and local government web resources and services.